[[{"header":{"parameterUnit":"m.s-1","parameterCategory":1,"la1":30.2991,"la2":30.254,"lo1":-89.0895,"lo2":-89.0444,"dy":0.0017,"dx":0.0017,"nx":28,"ny":28,"refTime":"2024-04-29T09:00:00:Z","depth":0,"parameterNumber":2,"parameterNumberName":"U-component_of_WINDS"},"data":[0,0,0,0,0,0,0,0,0,0,0,0,0,0,0,0,0,0,0,0,0,0,0,0,0,0,0,0,0,0,0,0,0,0,0,0,0,0,0,0,0,0,0,0,0,0,0,0,0,0,0,0,0,0,0,0,0,0,0.8891,0.8892,0,0.896,0.896,0.8961,0.8955,0.8954,0.8953,0.8952,0.9024,0.9027,0.9029,0,0,0,0,0,0,0,0,0,0,0,0,0,0.8755,0.8757,0.8891,0.8892,0.8893,0.896,0.896,0.8961,0.8955,0.8954,0.8953,0.8952,0.9023,0.9026,0.903,0,0,0,0,0,0,0,0,0,0,0,0,0,0.8818,0.8758,0.8891,0.8898,0.8899,0.8959,0.896,0.8962,0.8956,0.8954,0.8952,0.8951,0.9022,0.9026,0.903,0.9089,0,0,0.9043,0.9045,0,0,0,0,0,0,0,0,0.8814,0.8823,0.8896,0.8897,0.8899,0.8947,0.8939,0.9004,0.8956,0.8934,0.8952,0.895,0.9,0.9006,0.9022,0.9092,0.9095,0.9044,0.9047,0.9048,0.905,0,0,0,0,0,0,0,0.881,0.882,0.8918,0.8897,0.8899,0.8897,0.8905,0.8951,0.8975,0.8936,0.8936,0.8944,0.9,0.9018,0.9024,0.9096,0.9044,0.9048,0.905,0.9052,0.9217,0.9219,0,0,0,0,0,0,0.8804,0.8816,0.8916,0.892,0.8852,0.8901,0.8909,0.8933,0.8974,0.8979,0.8945,0.8943,0.9011,0.9019,0.9026,0.9097,0.9048,0.9052,0.9055,0.9215,0.9217,0.9219,0,0,0,0,0,0,0.8801,0.8813,0.8913,0.8868,0.8881,0.8905,0.8932,0.8935,0.8953,0.8981,0.8986,0.8959,0.901,0.902,0.9073,0.91,0.9054,0.9058,0.9213,0.9216,0.9218,0.924,0,0,0,0,0,0,0.8797,0.8812,0.8834,0.8869,0.8883,0.8959,0.8934,0.8938,0.8961,0.8959,0.8995,0.9,0.901,0.9067,0.9077,0.9105,0.9062,0.9211,0.9214,0.9218,0.9237,0.9243,0.9248,0,0,0,0,0,0.8792,0.8838,0.8835,0.8847,0.8912,0.896,0.8968,0.8979,0.8963,0.8985,0.9003,0.8999,0.9095,0.9072,0.9084,0.9113,0.9209,0.9213,0.9217,0.9234,0.9242,0.9248,0,0,0,0,0,0,0.8806,0.8842,0.884,0.8898,0.8926,0.8959,0.8988,0.8986,0.902,0.9017,0.9028,0.9036,0.909,0.9107,0.9081,0.9172,0.915,0.9157,0.9159,0.9166,0.9171,0.9166,0.9065,0,0,0,0,0,0.8816,0.8852,0.8882,0.893,0.8944,0.8964,0.8985,0.899,0.902,0.9032,0.9054,0.9083,0.912,0.9144,0.9179,0.9239,0.9247,0.9265,0.9271,0.9275,0.9281,0.9313,0.9322,0.9233,0.9233,0.9232,0,0,0.8837,0.8861,0.8883,0.8933,0.8956,0.8993,0.8974,0.9014,0.9042,0.9038,0.9089,0.9106,0.914,0.9196,0.9222,0.9212,0.9307,0.928,0.9283,0.9287,0.9318,0.9327,0.9334,0.9235,0.9235,0.9234,0,0,0.8893,0.8915,0.8958,0.898,0.9014,0.9027,0.9037,0.907,0.9081,0.9132,0.913,0.9163,0.9227,0.925,0.9271,0.9335,0.9332,0.9347,0.9376,0.9408,0.9415,0.9421,0.9444,0.9452,0.9352,0.9352,0.9352,0,0.8915,0.8971,0.898,0.9021,0.9043,0.904,0.9084,0.9105,0.9149,0.9164,0.9152,0.9231,0.9253,0.9315,0.9331,0.9347,0.9359,0.9343,0.9413,0.9419,0.9425,0.9448,0.9456,0.9354,0.9354,0.9353,0.9353,0,0.8995,0.9034,0.9064,0.9106,0.9132,0.9173,0.9189,0.9214,0.9217,0.9231,0.9283,0.9309,0.935,0.9365,0.9368,0.9427,0.942,0.941,0.9389,0.9435,0.9456,0.9465,0.9356,0.9355,0.9355,0.9355,0,0,0.9064,0.9109,0.912,0.9139,0.9176,0.9206,0.9247,0.9286,0.9307,0.9337,0.9373,0.9426,0.9417,0.944,0.9446,0.9474,0.9523,0.9461,0.9462,0.9471,0.959,0.9597,0.9606,0.9521,0.9523,0.9524,0.9587,0,0.9124,0.9197,0.9206,0.9271,0.9307,0.9305,0.9341,0.9368,0.9382,0.9414,0.943,0.9467,0.9452,0.9466,0.9494,0.9511,0.9547,0.9507,0.9554,0.9556,0.9546,0.9617,0.9625,0.9683,0.9595,0.9597,0.9598,0,0.9204,0.9236,0.9304,0.9336,0.9351,0.9383,0.942,0.9451,0.9481,0.9489,0.9514,0.9517,0.956,0.9536,0.9595,0.9568,0.9588,0.9599,0.9602,0.9607,0.958,0.9625,0.9702,0.971,0.9611,0.961,0.9609,0,0.9247,0.9307,0.9355,0.9371,0.9409,0.9432,0.9449,0.9477,0.95,0.9532,0.9546,0.9583,0.9603,0.9632,0.9644,0.9625,0.9703,0.968,0.9711,0.9711,0.9727,0.9726,0.9809,0.974,0.974,0.974,0.9739,0,0.9313,0.9355,0.9375,0.9405,0.9452,0.9462,0.9508,0.9524,0.9549,0.9582,0.9583,0.9614,0.9628,0.9661,0.9671,0.9719,0.9728,0.9736,0.9738,0.9736,0.9735,0.9749,0.9746,0.9742,0.9741,0.9741,0.9741,0,0.9369,0.9384,0.9437,0.9468,0.9477,0.951,0.9537,0.9566,0.9579,0.9621,0.9631,0.9652,0.9691,0.9706,0.9754,0.9761,0.9816,0.9815,0.9806,0.9806,0.9836,0.9833,0.9931,0.9945,0.9867,0.9868,0.9868,0,0.9411,0.9443,0.9477,0.9499,0.9517,0.9552,0.9575,0.9586,0.961,0.9646,0.9671,0.971,0.9742,0.9805,0.9824,0.9861,0.9861,0.9893,0.9866,0.9863,0.9861,0.9859,0.9863,0.9898,0.9898,0.9899,0.99,0,0.9483,0.9488,0.9521,0.9557,0.9584,0.9613,0.9641,0.9659,0.9674,0.9701,0.9741,0.9765,0.9814,0.9853,0.989,0.9908,0.9907,0.9908,0.9917,0.9915,0.9908,0.9912,0.9819,0.9905,0.9905,0.9904,0.9904,0.9904,0.9533,0.9561,0.959,0.9626,0.9648,0.9674,0.9703,0.9719,0.9753,0.9793,0.9797,0.984,0.9869,0.9919,0.9938,0.9972,0.9963,0.9977,0.998,0.9983,0.9985,0.9903,0.9979,0.9979,0.9979,0.9978,0.9978,0,0.9605,0.9623,0.9657,0.9695,0.9724,0.972,0.975,0.9775,0.9812,0.9839,0.987,0.9915,0.9953,0.9975,1.0013,1.0035,1.0036,1.0045,1.0043,1.0047,0.9991,0.9979,1.0044,1.0044,1.0044,1.0044,1.0044,1.0044,0.9646,0.9694,0.9702,0.9761,0.9779,0.982,0.9838,0.9862,0.9883,0.9934,0.9965,0.9979,1.0004,1.0043,1.0077,1.0083,1.0097,1.0107,1.0112,1.0058,1.0051,1.0045,1.0034,1.0109,1.011,1.0166,1.0166,1.0166]},{"header":{"parameterUnit":"m.s-1","parameterCategory":1,"la1":30.2991,"la2":30.254,"lo1":-89.0895,"lo2":-89.0444,"dy":0.0017,"dx":0.0017,"nx":28,"ny":28,"refTime":"2024-04-29T09:00:00:Z","depth":0,"parameterNumber":3,"parameterNumberName":"V-component_of_WINDS"},"data":[0,0,0,0,0,0,0,0,0,0,0,0,0,0,0,0,0,0,0,0,0,0,0,0,0,0,0,0,0,0,0,0,0,0,0,0,0,0,0,0,0,0,0,0,0,0,0,0,0,0,0,0,0,0,0,0,0,0,1.4036,1.4036,0,1.4054,1.4055,1.4055,1.4036,1.4035,1.4034,1.4034,1.4051,1.4052,1.4053,0,0,0,0,0,0,0,0,0,0,0,0,0,1.3983,1.3984,1.4036,1.4036,1.4037,1.4054,1.4055,1.4055,1.4036,1.4035,1.4034,1.4033,1.4051,1.4052,1.4054,0,0,0,0,0,0,0,0,0,0,0,0,0,1.4004,1.3985,1.4036,1.4029,1.4029,1.4054,1.4055,1.4055,1.4036,1.4035,1.4034,1.4033,1.405,1.4052,1.4054,1.4086,0,0,1.4059,1.406,0,0,0,0,0,0,0,0,1.4003,1.4006,1.403,1.403,1.4029,1.4042,1.4042,1.4065,1.4037,1.4033,1.4034,1.4032,1.4049,1.4051,1.4056,1.4087,1.4088,1.4059,1.406,1.4061,1.4061,0,0,0,0,0,0,0,1.4002,1.4005,1.4043,1.403,1.403,1.4025,1.4027,1.4047,1.4047,1.4034,1.4032,1.4035,1.4048,1.4055,1.4057,1.4088,1.4059,1.4061,1.4062,1.4062,1.4147,1.4148,0,0,0,0,0,0,1.4001,1.4004,1.4043,1.4044,1.4013,1.4027,1.4029,1.4039,1.4047,1.4047,1.4036,1.4034,1.4052,1.4055,1.4057,1.4096,1.4061,1.4063,1.4064,1.4146,1.4147,1.4148,0,0,0,0,0,0,1.4,1.4005,1.4042,1.4024,1.4028,1.4029,1.404,1.404,1.4046,1.4048,1.4048,1.4042,1.4052,1.4055,1.4079,1.4097,1.4063,1.4065,1.4144,1.4146,1.4148,1.4175,0,0,0,0,0,0,1.3999,1.4005,1.4017,1.4024,1.4029,1.4064,1.4041,1.4041,1.4049,1.4047,1.4055,1.4055,1.4051,1.4077,1.4081,1.4099,1.4066,1.4143,1.4145,1.4147,1.4172,1.4177,1.4182,0,0,0,0,0,1.3997,1.4024,1.4018,1.4023,1.4045,1.4065,1.4068,1.4064,1.4051,1.4064,1.4065,1.4054,1.4094,1.408,1.4084,1.4102,1.4142,1.4144,1.4147,1.417,1.4176,1.4182,0,0,0,0,0,0,1.4018,1.4025,1.4018,1.4048,1.4057,1.4062,1.4078,1.407,1.4082,1.4079,1.4073,1.4075,1.4101,1.4104,1.4088,1.4134,1.4116,1.4119,1.4132,1.4138,1.4142,1.4141,1.4068,0,0,0,0,0,1.4027,1.4043,1.4047,1.4073,1.4078,1.4077,1.4086,1.4082,1.409,1.4093,1.4096,1.4104,1.4119,1.4128,1.4141,1.4172,1.4174,1.4187,1.4192,1.4196,1.4199,1.4216,1.4222,1.4157,1.4157,1.4157,0,0,1.4044,1.4049,1.406,1.4078,1.4084,1.4101,1.408,1.4099,1.4111,1.4096,1.412,1.4122,1.4131,1.4159,1.4171,1.4162,1.4217,1.4199,1.4202,1.4203,1.422,1.4226,1.4231,1.4159,1.4159,1.4159,0,0,1.4084,1.409,1.4112,1.4119,1.4128,1.4128,1.4133,1.414,1.4141,1.4165,1.4154,1.4168,1.4193,1.4199,1.4206,1.4249,1.424,1.4253,1.4277,1.4294,1.4299,1.4304,1.4319,1.4325,1.4256,1.4256,1.4256,0,1.4104,1.413,1.4125,1.4144,1.4153,1.414,1.4163,1.4169,1.4182,1.4188,1.4177,1.4208,1.4213,1.4243,1.4253,1.4259,1.4265,1.4253,1.4299,1.4303,1.4307,1.4322,1.4328,1.4258,1.4258,1.4258,1.4258,0,1.4154,1.4172,1.4189,1.4203,1.4213,1.4234,1.4232,1.4242,1.4237,1.4238,1.4262,1.4267,1.4282,1.4288,1.4283,1.4317,1.4311,1.43,1.4281,1.4315,1.4329,1.4335,1.426,1.426,1.4259,1.4259,0,0,1.4209,1.422,1.4226,1.4232,1.4242,1.4255,1.4275,1.429,1.4299,1.4309,1.4326,1.4347,1.4336,1.4344,1.4339,1.4354,1.4388,1.4341,1.4341,1.435,1.4427,1.4436,1.4443,1.4382,1.4383,1.4384,1.4426,0,1.425,1.4286,1.4282,1.4316,1.4333,1.4321,1.4338,1.4346,1.4347,1.4361,1.4361,1.4377,1.4361,1.4366,1.438,1.4381,1.4404,1.4378,1.4398,1.4398,1.4397,1.445,1.4459,1.4499,1.4431,1.4432,1.4433,0,1.4302,1.4315,1.4351,1.4358,1.4365,1.4381,1.4394,1.4407,1.4415,1.4415,1.4423,1.4416,1.4436,1.4417,1.4444,1.4427,1.4435,1.4437,1.4438,1.444,1.4418,1.4454,1.4512,1.4518,1.4441,1.4441,1.444,0,1.434,1.4365,1.439,1.4395,1.4404,1.4416,1.442,1.4427,1.4436,1.4447,1.4453,1.4466,1.4473,1.4483,1.448,1.4466,1.4509,1.4488,1.4509,1.4509,1.4519,1.4519,1.458,1.4523,1.4523,1.4523,1.4523,0,1.4386,1.4409,1.4407,1.4422,1.4447,1.4442,1.4467,1.4469,1.4476,1.4491,1.4481,1.4496,1.449,1.4504,1.4502,1.4525,1.4528,1.4529,1.4528,1.453,1.453,1.4536,1.4533,1.4524,1.4524,1.4524,1.4523,0,1.4432,1.4432,1.4458,1.4465,1.4467,1.4485,1.449,1.4505,1.4504,1.4524,1.4529,1.4528,1.4545,1.4542,1.456,1.4558,1.4588,1.4583,1.4585,1.4585,1.4606,1.4604,1.4673,1.4682,1.4619,1.4619,1.462,0,1.4463,1.448,1.4488,1.4498,1.4504,1.452,1.4529,1.4524,1.4534,1.4545,1.4558,1.4574,1.4586,1.4612,1.4613,1.4627,1.4623,1.4646,1.4625,1.4627,1.4624,1.4624,1.4626,1.4651,1.4651,1.4652,1.4652,0,1.4516,1.4515,1.4529,1.4544,1.4555,1.4566,1.4576,1.4584,1.4581,1.4592,1.4609,1.4619,1.4637,1.4653,1.4665,1.4669,1.466,1.4659,1.4665,1.4667,1.4668,1.4669,1.4598,1.4658,1.4657,1.4657,1.4656,1.4656,1.4556,1.4571,1.458,1.4596,1.4603,1.4612,1.4626,1.4628,1.4642,1.4657,1.4653,1.4673,1.468,1.4696,1.4702,1.4716,1.4708,1.4715,1.4718,1.472,1.4723,1.4665,1.4718,1.4718,1.4718,1.4718,1.4718,0,1.461,1.4615,1.463,1.4644,1.4657,1.4648,1.4658,1.4669,1.4686,1.4694,1.4707,1.4726,1.4741,1.4743,1.4758,1.4769,1.4765,1.4773,1.4772,1.4773,1.4729,1.4723,1.4775,1.4775,1.4775,1.4775,1.4775,1.4775,1.464,1.4665,1.4665,1.4693,1.4698,1.4717,1.4724,1.4732,1.4739,1.4761,1.4774,1.4775,1.4781,1.4796,1.4809,1.4809,1.4815,1.4824,1.4823,1.4782,1.4776,1.4771,1.4765,1.4825,1.4826,1.4866,1.4867,1.4867]}]]